Regional Weather Roundup
Issued by NWS Raleigh/Durham, NC

Home | Current Version | Previous Version | Text Only | Print | Product List | Glossary On
Versions: 1 2 3 4 5 6 7 8 9 10 11 12 13 14 15 16 17 18 19 20 21 22 23 24 25 26 27 28 29 30 31 32 33 34 35 36 37 38 39 40 41 42 43 44 45 46 47 48 49 50
000
ASUS42 KRAH 231010
RWRRAH
NORTH CAROLINA WEATHER ROUNDUP
NATIONAL WEATHER SERVICE RALEIGH NC
500 AM EST FRI FEB 23 2018

NOTE: "FAIR" INDICATES FEW OR NO CLOUDS BELOW 12,000 FEET WITH NO
SIGNIFICANT WEATHER AND/OR OBSTRUCTIONS TO VISIBILITY.

NCZ001-053-055-056-065-067-231100-
WESTERN NORTH CAROLINA

CITY           SKY/WX    TMP DP  RH WIND       PRES   REMARKS
ASHEVILLE      FAIR      52  51  97 CALM      30.42S FOG
JEFFERSON      CLOUDY    56  55  99 S3        30.44S FOG
MORGANTON      FOG       53  53 100 NW5       30.44R VSB 1/4
HICKORY        FAIR      59  59 100 CALM      30.39S
RUTHERFORDTON  FAIR      56  56 100 CALM      30.41S FOG
MOUNT AIRY     CLOUDY    55  49  80 E12G18    30.46R
BOONE          FOG       50  50 100 CALM      30.46R VSB 1/4
$$

NCZ021-022-025-041-071-084-088-231100-
CENTRAL NORTH CAROLINA

CITY           SKY/WX    TMP DP  RH WIND       PRES   REMARKS
CHARLOTTE      MOCLDY    60  58  92 SE5       30.42R
GREENSBORO     CLOUDY    53  51  93 NE10      30.44S
WINSTON-SALEM  MOCLDY    53  49  86 NE9       30.46R
RALEIGH-DURHAM CLOUDY    58  55  90 NE9       30.46R
FORT BRAGG     FAIR      59  59 100 CALM      30.43R FOG
FAYETTEVILLE   FOG       55  55 100 SE5       30.43S VSB 1/2
BURLINGTON     CLOUDY    57  55  93 NE8       30.45R
LAURINBURG     FOG       54  53  97 CALM      30.44S VSB 1/4
$$

NCZ011-015-027-028-043-044-047-080-103-231100-
NORTHEASTERN NORTH CAROLINA

CITY           SKY/WX    TMP DP  RH WIND       PRES   REMARKS
ROCKY MT-WILSO CLOUDY    51  50  96 NE10      30.48S FOG
GREENVILLE     CLOUDY    52  52 100 NE7       30.48S
WASHINGTON     CLOUDY    51  50  94 NE5       30.49R
ELIZABETH CITY CLOUDY    48  48 100 N10       30.51S FOG
MANTEO         NOT AVBL
CAPE HATTERAS  CLOUDY    56  56 100 N8        30.46R
$$

NCZ078-087-090-091-093-098-101-231100-
SOUTHEASTERN NORTH CAROLINA

CITY           SKY/WX    TMP DP  RH WIND       PRES   REMARKS
LUMBERTON      FOG       53  53 100 CALM      30.43R VSB 3/4
GOLDSBORO      CLOUDY    61  60  96 NE3       30.44R
KINSTON        CLOUDY    62  62 100 N6        30.46R
KENANSVILLE    FOG       57  57 100 CALM      30.45R VSB<1/4
NEW BERN       MOCLDY    61  61 100 N5        30.46R
CHERRY POINT   PTCLDY    56  56 100 E3        30.45R FOG
BEAUFORT       FOG       57  56  96 E3        30.44R VSB 1/2
JACKSONVILLE   FOG       56  56 100 CALM      30.43S VSB 1/4
WILMINGTON     FOG       55  55 100 NE3       30.43S VSB 1/4
$$




USA.gov is the U.S. government's official web portal to all federal, state and local government web resources and services.